Flag for Norway Weather past 2 weeks in Bodø, Norway

Now
41 °F

Light rain. Broken clouds.


Feels Like: 32 °F
Forecast: 36 / 41 °F
Wind: 18 mph from South

Location: Bodo Vi


UV Index: 0 (Low)

Visibility: N/A


Pressure: 29.59 "Hg

Humidity: 87%

Dew point: 37 °F

Location of BodøLocation

Historic Weather in Bodø

°F

Bodø temperature yesterday

Maximum temperature yesterday: 41 °F (at 4:20 PM)
Minimum temperature yesterday: 34 °F (at 5:50 AM)
Average temperature yesterday: 37 °F

Past Weeks' High & Low Weather Summary

 TemperatureHumidityPressure
High46 °F (Apr 9, 12:50 PM)100% (Apr 2, 1:50 AM)30.12 "Hg (Apr 2, 1:50 AM)
Low28 °F (Apr 6, 4:50 AM)43% (Apr 9, 12:50 PM)28.97 "Hg (Apr 13, 7:20 AM)
Average38 °F71%29.69 "Hg
* Reported Apr 1 6:20 PM — Apr 16 6:20 PM, Bodø, Weather by CustomWeather, © 2014

Note: Actual official high and low records may vary slightly from our data, if they occured in-between our weather recording intervals... More about our weather records

Advertising

Historic Weather Conditions — Data for Previous 24 hours

 ConditionsComfort  
Time TempWeatherWind HumidityBarometerVisibility
6:20 PM
Apr 16
43 °FLight rain. Partly sunny.18 mph81%29.59 "HgN/A
5:50 PM43 °FPartly sunny.17 mph81%29.62 "HgN/A
5:20 PM43 °FPartly sunny.16 mph81%29.62 "HgN/A
4:50 PM41 °FLight rain. Broken clouds.18 mph87%29.65 "HgN/A
4:20 PM41 °FLight rain. Partly sunny.18 mph87%29.65 "HgN/A
3:50 PM41 °FLight rain. Broken clouds.20 mph87%29.68 "HgN/A
3:20 PM41 °FLight rain. Broken clouds.20 mph87%29.68 "HgN/A
2:50 PM41 °FDrizzle. Broken clouds.20 mph87%29.71 "HgN/A
2:20 PM41 °FDrizzle. Broken clouds.21 mph87%29.71 "HgN/A
1:50 PM41 °FDrizzle. Broken clouds.21 mph87%29.71 "HgN/A
1:20 PM41 °FDrizzle. Broken clouds.22 mph87%29.74 "HgN/A
12:50 PM41 °FDrizzle. Broken clouds.20 mph87%29.74 "HgN/A
12:20 PM41 °FDrizzle. Broken clouds.20 mph87%29.77 "HgN/A
11:50 AM41 °FLight rain. Broken clouds.18 mph87%29.77 "HgN/A
11:20 AM43 °FLight rain. Partly sunny.15 mph81%29.77 "HgN/A
10:50 AM43 °FLight rain. Broken clouds.14 mph81%29.80 "HgN/A
10:20 AM43 °FLight rain. Broken clouds.18 mph81%29.80 "HgN/A
9:50 AM41 °FLight rain. Broken clouds.18 mph87%29.80 "HgN/A
9:20 AM41 °FLight rain. Partly sunny.18 mph87%29.83 "HgN/A
8:50 AM39 °FLight rain. Partly sunny.18 mph87%29.83 "HgN/A
8:20 AM37 °FLight rain. Partly sunny.8 mph93%29.83 "HgN/A
7:50 AM37 °FLight rain. Partly sunny.12 mph87%29.86 "HgN/A
7:20 AM36 °FLight rain. Partly sunny.14 mph93%29.86 "HgN/A
6:50 AM36 °FLight rain. Partly sunny.15 mph93%29.89 "HgN/A
6:20 AM36 °FLight rain. Partly sunny.18 mph87%29.89 "HgN/A
5:50 AM34 °FLight rain. Passing clouds.17 mph93%29.89 "HgN/A
4:50 AM34 °FLight rain. Partly cloudy.22 mph93%29.92 "Hg2 mi
3:50 AM32 °FLight rain. Partly cloudy.22 mph93%29.92 "Hg2 mi
2:50 AM32 °FLight rain. Passing clouds.20 mph93%29.95 "Hg2 mi
1:50 AM34 °FLight rain. Passing clouds.17 mph81%29.98 "Hg4 mi
12:50 AM36 °FPartly cloudy.14 mph60%30.01 "HgN/A
11:50 PM
Apr 15
36 °FPassing clouds.8 mph56%30.04 "HgN/A
11:20 PM36 °FPassing clouds.9 mph56%30.04 "HgN/A
10:20 PM34 °FPassing clouds.9 mph60%30.07 "HgN/A
9:50 PM34 °FPassing clouds.9 mph65%30.07 "HgN/A
9:20 PM36 °FScattered clouds.6 mph65%30.09 "HgN/A
8:50 PM36 °FScattered clouds.6 mph60%30.09 "HgN/A
8:20 PM37 °FScattered clouds.8 mph56%30.09 "HgN/A
7:50 PM37 °FPartly sunny.9 mph56%30.09 "HgN/A
7:20 PM37 °FPartly sunny.8 mph56%30.12 "HgN/A
Weather by CustomWeather, © 2014

See weather overview